Location: Temecula
(33.4977°N, 117.1073°W)
Time: 02:40:58
(UTC-07:00)

ISS - Visible Passes

Search period start: 28 May 2018 00:00
Search period end: 07 June 2018 00:00
Orbit: 402 x 407 km, 51.6° (Epoch: 28 May)

Date Brightness Start Highest point End Pass type
(mag) Time Alt. Az. Time Alt. Az. Time Alt. Az.
01 Jun -0.8 22:42:54 10° N 22:43:50 12° NNE 22:43:50 12° NNE visible
02 Jun -0.3 23:25:50 10° NW 23:25:57 11° NW 23:25:57 11° NW visible
03 Jun -1.4 22:33:51 10° NNW 22:35:28 21° N 22:35:28 21° N visible
04 Jun -1.4 21:42:08 10° N 21:44:11 15° NNE 21:45:01 14° NE visible
05 Jun -2.0 22:25:19 10° NW 22:27:14 32° NNW 22:27:14 32° NNW visible
06 Jun -2.7 21:33:13 10° NNW 21:36:12 32° NE 21:36:52 29° ENE visible
